Вернуться в каталог

APSTAR 1A

АктивенСвязьGEO
NORAD 23943·PAYLOAD·🇨🇳 China

Запущен Jul 3, 1996 с Xichang Satellite Launch Center

Loading…

TLE

СвежийSource: Space-Track

Эпоха: Sep 14, 2026, 05:52 UTC

1 23943U 96039A   26257.24483084 -.00000306  00000-0  00000-0 0  9993
2 23943  12.7606  19.3883 0019114 350.5185 203.7546  0.99193337 43525

Отслеживайте APSTAR 1A в реальном времени с AllMySat

Download on the App Store